| time (UTC) | temp F | wind direction | speed knots | gust knots | rain 1hr in | rain 24hr in | rain mn in | humidity % | barometer mb |
| 20260505083353 | 41 | 177 | 0.0 | 0.0 | 0.00 | 0.00 | 0.00 | 57 | 1007.6 |
| 20260505082849 | 41 | 320 | 3.5 | 4.3 | 0.00 | 0.00 | 0.00 | 56 | 1007.4 |
| 20260505082345 | 41 | 139 | 1.7 | 2.6 | 0.00 | 0.00 | 0.00 | 56 | 1007.4 |
| 20260505081842 | 41 | 128 | 1.7 | 1.7 | 0.00 | 0.00 | 0.00 | 56 | 1007.4 |
| 20260505081339 | 41 | 173 | 1.7 | 1.7 | 0.00 | 0.00 | 0.00 | 56 | 1007.3 |
| 20260505080836 | 41 | 196 | 0.9 | 1.7 | 0.00 | 0.00 | 0.00 | 56 | 1007.3 |
| 20260505080331 | 41 | 190 | 1.7 | 1.7 | 0.00 | 0.00 | 0.00 | 56 | 1007.0 |
| 20260505075827 | 41 | 166 | 1.7 | 2.6 | 0.00 | 0.00 | 0.00 | 56 | 1007.1 |
| 20260505075324 | 41 | 212 | 1.7 | 2.6 | 0.00 | 0.00 | 0.00 | 56 | 1007.0 |
| 20260505074822 | 41 | 208 | 1.7 | 1.7 | 0.00 | 0.00 | 0.00 | 56 | 1006.9 |
| 20260505074319 | 42 | 198 | 0.9 | 1.7 | 0.00 | 0.00 | 0.00 | 55 | 1007.2 |
| 20260505073816 | 42 | 248 | 1.7 | 4.3 | 0.00 | 0.00 | 0.00 | 54 | 1007.1 |
| 20260505073314 | 42 | 304 | 1.7 | 2.6 | 0.00 | 0.00 | 0.00 | 54 | 1007.2 |
| 20260505072811 | 42 | 233 | 1.7 | 2.6 | 0.00 | 0.00 | 0.00 | 54 | 1007.0 |
| 20260505072307 | 42 | 171 | 0.9 | 1.7 | 0.00 | 0.00 | 0.00 | 55 | 1007.1 |
| 20260505071802 | 42 | 175 | 0.0 | 0.0 | 0.00 | 0.00 | 0.00 | 55 | 1007.2 |
| 20260505071259 | 42 | 226 | 1.7 | 1.7 | 0.00 | 0.00 | 0.00 | 54 | 1007.1 |
| 20260505070757 | 42 | 244 | 0.9 | 1.7 | 0.00 | 0.00 | 0.00 | 54 | 1007.2 |
| 20260505070254 | 42 | 121 | 1.7 | 1.7 | 0.00 | 0.00 | 0.00 | 54 | 1007.2 |
| 20260505065748 | 42 | 175 | 0.0 | 0.0 | 0.00 | 0.00 | 0.00 | 54 | 1007.2 |
| 20260505065246 | 42 | 185 | 1.7 | 2.6 | 0.00 | 0.00 | 0.00 | 54 | 1007.3 |
| 20260505064743 | 42 | 210 | 3.5 | 4.3 | 0.00 | 0.00 | 0.00 | 54 | 1007.3 |
| 20260505064240 | 43 | 176 | 1.7 | 2.6 | 0.00 | 0.00 | 0.00 | 54 | 1007.1 |
| 20260505063738 | 43 | 173 | 0.0 | 0.0 | 0.00 | 0.00 | 0.00 | 55 | 1007.0 |
| 20260505063234 | 43 | 277 | 3.5 | 4.3 | 0.00 | 0.00 | 0.00 | 54 | 1007.1 |
| 20260505062730 | 43 | 245 | 1.7 | 2.6 | 0.00 | 0.00 | 0.00 | 54 | 1007.3 |
| 20260505062228 | 43 | 259 | 0.0 | 1.7 | 0.00 | 0.00 | 0.00 | 55 | 1007.2 |
| 20260505061725 | 43 | 321 | 2.6 | 4.3 | 0.00 | 0.00 | 0.00 | 55 | 1007.2 |
| 20260505061223 | 43 | 194 | 0.9 | 1.7 | 0.00 | 0.00 | 0.00 | 55 | 1007.2 |
| 20260505060720 | 43 | 3 | 1.7 | 2.6 | 0.00 | 0.00 | 0.00 | 55 | 1007.3 |
| 20260505060217 | 43 | 152 | 2.6 | 4.3 | 0.00 | 0.00 | 0.00 | 55 | 1007.3 |
| 20260505055712 | 43 | 89 | 0.0 | 1.7 | 0.00 | 0.00 | 0.00 | 56 | 1007.3 |
| 20260505055209 | 42 | 183 | 0.0 | 0.0 | 0.00 | 0.00 | 0.00 | 57 | 1007.2 |
| 20260505054706 | 42 | 164 | 0.9 | 1.7 | 0.00 | 0.00 | 0.00 | 58 | 1006.9 |
| 20260505054204 | 42 | 170 | 0.0 | 0.0 | 0.00 | 0.00 | 0.00 | 57 | 1007.1 |
| 20260505053702 | 43 | 171 | 0.0 | 0.0 | 0.00 | 0.00 | 0.00 | 56 | 1006.9 |
| 20260505053158 | 43 | 172 | 0.0 | 0.0 | 0.00 | 0.00 | 0.00 | 56 | 1007.0 |
| 20260505052655 | 43 | 243 | 1.7 | 1.7 | 0.00 | 0.00 | 0.00 | 56 | 1007.0 |
| 20260505052152 | 43 | 291 | 1.7 | 2.6 | 0.00 | 0.00 | 0.00 | 56 | 1006.9 |
| 20260505051649 | 43 | 233 | 0.0 | 0.0 | 0.00 | 0.00 | 0.00 | 57 | 1006.8 |
| 20260505051147 | 43 | 178 | 0.0 | 0.0 | 0.00 | 0.00 | 0.00 | 56 | 1006.9 |
| 20260505050645 | 43 | 174 | 0.0 | 0.0 | 0.00 | 0.00 | 0.00 | 55 | 1006.7 |
| 20260505050143 | 43 | 184 | 0.0 | 0.0 | 0.00 | 0.00 | 0.00 | 55 | 1007.0 |
| 20260505041612 | 43 | 170 | 0.0 | 0.0 | 0.00 | 0.00 | 0.00 | 55 | 1006.7 |
| 20260505041110 | 43 | 139 | 0.0 | 0.0 | 0.00 | 0.00 | 0.00 | 55 | 1006.6 |
| 20260505040607 | 44 | 173 | 0.0 | 0.0 | 0.00 | 0.00 | 0.00 | 54 | 1006.6 |
| 20260505040104 | 44 | 173 | 0.0 | 0.0 | 0.00 | 0.00 | 0.00 | 54 | 1006.6 |
| 20260505035600 | 44 | 168 | 0.0 | 0.0 | 0.00 | 0.00 | 0.00 | 53 | 1006.7 |
| 20260505035057 | 44 | 179 | 0.0 | 0.0 | 0.00 | 0.00 | 0.00 | 52 | 1006.7 |
| 20260505034553 | 44 | 174 | 0.0 | 0.0 | 0.00 | 0.00 | 0.00 | 52 | 1006.5 |
| 20260505034050 | 45 | 171 | 0.0 | 0.0 | 0.00 | 0.00 | 0.00 | 51 | 1006.5 |
| 20260505033547 | 45 | 178 | 0.0 | 0.0 | 0.00 | 0.00 | 0.00 | 51 | 1006.4 |
| 20260505033045 | 44 | 150 | 0.0 | 0.0 | 0.00 | 0.00 | 0.00 | 50 | 1006.5 |
| 20260505032543 | 45 | 161 | 0.0 | 0.0 | 0.00 | 0.00 | 0.00 | 51 | 1006.6 |
| 20260505032039 | 45 | 175 | 0.0 | 0.0 | 0.00 | 0.00 | 0.00 | 50 | 1006.5 |
| 20260505031537 | 45 | 147 | 0.9 | 2.6 | 0.00 | 0.00 | 0.00 | 50 | 1006.7 |
| 20260505031033 | 45 | 215 | 0.9 | 1.7 | 0.00 | 0.00 | 0.00 | 50 | 1006.5 |
| 20260505030530 | 45 | 168 | 0.0 | 0.0 | 0.00 | 0.00 | 0.00 | 50 | 1006.6 |
| 20260505030026 | 46 | 166 | 0.0 | 0.0 | 0.00 | 0.00 | 0.00 | 49 | 1006.4 |
| 20260505025522 | 46 | 164 | 0.0 | 0.0 | 0.00 | 0.00 | 0.00 | 49 | 1006.4 |
| 20260505025021 | 46 | 181 | 0.0 | 0.0 | 0.00 | 0.00 | 0.00 | 49 | 1006.5 |
| 20260505024518 | 45 | 158 | 0.0 | 0.0 | 0.00 | 0.00 | 0.00 | 49 | 1006.5 |
| 20260505024015 | 45 | 154 | 0.0 | 0.0 | 0.00 | 0.00 | 0.00 | 48 | 1006.3 |
| 20260505023511 | 45 | 155 | 0.0 | 1.7 | 0.00 | 0.00 | 0.00 | 48 | 1006.3 |
| 20260505023009 | 46 | 173 | 0.0 | 0.0 | 0.00 | 0.00 | 0.00 | 48 | 1006.3 |
| 20260505022507 | 46 | 161 | 0.0 | 0.0 | 0.00 | 0.00 | 0.00 | 48 | 1006.2 |
| 20260505022004 | 46 | 168 | 0.0 | 0.0 | 0.00 | 0.00 | 0.00 | 46 | 1006.0 |
| 20260505021500 | 47 | 224 | 1.7 | 1.7 | 0.00 | 0.00 | 0.00 | 46 | 1005.9 |
| 20260505020955 | 47 | 170 | 0.9 | 1.7 | 0.00 | 0.00 | 0.00 | 45 | 1005.8 |
| 20260505020451 | 47 | 179 | 0.0 | 0.0 | 0.00 | 0.00 | 0.00 | 45 | 1005.8 |
| 20260505015948 | 48 | 195 | 0.9 | 1.7 | 0.00 | 0.00 | 0.00 | 44 | 1005.7 |
| 20260505015446 | 48 | 160 | 0.0 | 1.7 | 0.00 | 0.00 | 0.00 | 43 | 1005.8 |
| 20260505014942 | 48 | 254 | 1.7 | 2.6 | 0.00 | 0.00 | 0.00 | 43 | 1005.6 |
| 20260505014439 | 48 | 352 | 1.7 | 4.3 | 0.00 | 0.00 | 0.00 | 42 | 1005.8 |
| 20260505013937 | 49 | 338 | 6.1 | 8.7 | 0.00 | 0.00 | 0.00 | 42 | 1005.7 |
| 20260505013434 | 49 | 39 | 8.7 | 10.4 | 0.00 | 0.00 | 0.00 | 42 | 1005.7 |
| 20260505012931 | 49 | 220 | 5.2 | 8.7 | 0.00 | 0.00 | 0.00 | 42 | 1005.6 |
| 20260505012429 | 49 | 157 | 0.9 | 1.7 | 0.00 | 0.00 | 0.00 | 44 | 1005.5 |
| 20260505011925 | 49 | 332 | 2.6 | 4.3 | 0.00 | 0.00 | 0.00 | 43 | 1005.4 |
| 20260505011421 | 50 | 201 | 0.9 | 1.7 | 0.00 | 0.00 | 0.00 | 43 | 1005.3 |
| 20260505010918 | 50 | 204 | 5.2 | 7.8 | 0.00 | 0.00 | 0.00 | 43 | 1005.2 |
| 20260505010414 | 50 | 239 | 6.1 | 12.2 | 0.00 | 0.00 | 0.00 | 42 | 1004.9 |
| 20260505005910 | 50 | 319 | 5.2 | 7.8 | 0.00 | 0.00 | 0.00 | 42 | 1005.2 |
| 20260505005407 | 51 | 349 | 2.6 | 2.6 | 0.00 | 0.00 | 0.00 | 42 | 1004.6 |
| 20260505004905 | 51 | 196 | 5.2 | 10.4 | 0.00 | 0.00 | 0.00 | 41 | 1004.7 |
| 20260505004401 | 51 | 231 | 5.2 | 6.1 | 0.00 | 0.00 | 0.00 | 42 | 1004.6 |
| 20260505003858 | 51 | 31 | 7.0 | 10.4 | 0.00 | 0.00 | 0.00 | 41 | 1004.6 |
| 20260505003355 | 52 | 294 | 4.3 | 7.8 | 0.00 | 0.00 | 0.00 | 41 | 1004.4 |
| 20260505002852 | 52 | 193 | 1.7 | 2.6 | 0.00 | 0.00 | 0.00 | 41 | 1004.5 |
| 20260505002348 | 53 | 246 | 3.5 | 6.1 | 0.00 | 0.00 | 0.00 | 40 | 1004.4 |
| 20260505001847 | 53 | 327 | 3.5 | 4.3 | 0.00 | 0.00 | 0.00 | 39 | 1004.3 |
| 20260505001344 | 53 | 154 | 7.8 | 12.2 | 0.00 | 0.00 | 0.00 | 39 | 1004.0 |
| 20260505000841 | 53 | 257 | 3.5 | 4.3 | 0.00 | 0.00 | 0.00 | 39 | 1004.1 |
| 20260505000338 | 53 | 304 | 1.7 | 2.6 | 0.00 | 0.00 | 0.00 | 40 | 1004.1 |
| 20260504235835 | 53 | 41 | 1.7 | 2.6 | 0.00 | 0.00 | 0.00 | 40 | 1004.0 |
| 20260504235332 | 53 | 341 | 6.1 | 10.4 | 0.00 | 0.00 | 0.00 | 39 | 1004.0 |
| 20260504234828 | 53 | 37 | 6.1 | 7.8 | 0.00 | 0.00 | 0.00 | 39 | 1003.7 |
| 20260504234326 | 54 | 274 | 8.7 | 12.2 | 0.00 | 0.00 | 0.00 | 38 | 1003.8 |
| 20260504233822 | 54 | 334 | 5.2 | 7.8 | 0.00 | 0.00 | 0.00 | 39 | 1003.8 |
| 20260504233318 | 54 | 227 | 0.0 | 1.7 | 0.00 | 0.00 | 0.00 | 39 | 1003.6 |
| 20260504232815 | 54 | 348 | 1.7 | 2.6 | 0.00 | 0.00 | 0.00 | 38 | 1003.6 |
| 20260504232312 | 54 | 194 | 2.6 | 2.6 | 0.00 | 0.00 | 0.00 | 38 | 1003.4 |
| 20260504231809 | 55 | 290 | 3.5 | 4.3 | 0.00 | 0.00 | 0.00 | 39 | 1003.5 |
| 20260504231306 | 54 | 132 | 6.1 | 8.7 | 0.00 | 0.00 | 0.00 | 39 | 1003.5 |
| 20260504230802 | 54 | 229 | 2.6 | 4.3 | 0.00 | 0.00 | 0.00 | 40 | 1003.5 |
| 20260504230300 | 55 | 335 | 5.2 | 7.8 | 0.00 | 0.00 | 0.00 | 39 | 1003.4 |
| 20260504225758 | 55 | 145 | 1.7 | 1.7 | 0.00 | 0.00 | 0.00 | 40 | 1003.5 |
| 20260504225254 | 55 | 236 | 1.7 | 1.7 | 0.00 | 0.00 | 0.00 | 40 | 1003.4 |
| 20260504224752 | 55 | 223 | 7.8 | 10.4 | 0.00 | 0.00 | 0.00 | 39 | 1003.4 |
| 20260504224249 | 56 | 289 | 4.3 | 6.1 | 0.00 | 0.00 | 0.00 | 39 | 1003.1 |
| 20260504223745 | 56 | 232 | 6.1 | 10.4 | 0.00 | 0.00 | 0.00 | 39 | 1003.0 |
| 20260504223241 | 57 | 350 | 3.5 | 6.1 | 0.00 | 0.00 | 0.00 | 40 | 1002.9 |
| 20260504222738 | 56 | 76 | 3.5 | 4.3 | 0.00 | 0.00 | 0.00 | 40 | 1002.7 |
| 20260504222234 | 57 | 353 | 4.3 | 6.1 | 0.00 | 0.00 | 0.00 | 40 | 1002.7 |
| 20260504221732 | 58 | 347 | 5.2 | 7.8 | 0.00 | 0.00 | 0.00 | 38 | 1002.7 |
| 20260504221229 | 58 | 282 | 3.5 | 6.1 | 0.00 | 0.00 | 0.00 | 40 | 1002.3 |
| 20260504220725 | 59 | 282 | 7.8 | 12.2 | 0.00 | 0.00 | 0.00 | 38 | 1002.5 |
| 20260504220223 | 58 | 236 | 1.7 | 2.6 | 0.00 | 0.00 | 0.00 | 40 | 1002.4 |
| 20260504215720 | 58 | 31 | 1.7 | 4.3 | 0.00 | 0.00 | 0.00 | 40 | 1002.3 |
| 20260504215217 | 59 | 329 | 7.8 | 10.4 | 0.00 | 0.00 | 0.00 | 37 | 1002.1 |
| 20260504214712 | 59 | 314 | 3.5 | 4.3 | 0.00 | 0.00 | 0.00 | 38 | 1002.2 |
| 20260504214209 | 58 | 336 | 6.1 | 10.4 | 0.00 | 0.00 | 0.00 | 39 | 1001.9 |
| 20260504213706 | 57 | 143 | 3.5 | 4.3 | 0.00 | 0.00 | 0.00 | 39 | 1001.8 |
| 20260504213202 | 58 | 71 | 5.2 | 8.7 | 0.00 | 0.00 | 0.00 | 39 | 1001.7 |
| 20260504212659 | 58 | 22 | 5.2 | 10.4 | 0.00 | 0.00 | 0.00 | 38 | 1001.7 |
| 20260504212156 | 61 | 187 | 6.1 | 12.2 | 0.00 | 0.00 | 0.00 | 36 | 1001.8 |
| 20260504211653 | 61 | 252 | 6.1 | 12.2 | 0.00 | 0.00 | 0.00 | 37 | 1001.6 |
| 20260504211149 | 61 | 343 | 5.2 | 16.5 | 0.00 | 0.00 | 0.00 | 36 | 1001.7 |
| 20260504210647 | 60 | 204 | 2.6 | 2.6 | 0.00 | 0.00 | 0.00 | 37 | 1001.7 |
| 20260504210143 | 60 | 0 | 7.8 | 10.4 | 0.00 | 0.00 | 0.00 | 37 | 1001.6 |
| 20260504205641 | 62 | 233 | 1.7 | 1.7 | 0.00 | 0.00 | 0.00 | 38 | 1001.5 |
| 20260504205138 | 61 | 283 | 4.3 | 7.8 | 0.00 | 0.00 | 0.00 | 36 | 1001.7 |
| 20260504204637 | 61 | 275 | 9.6 | 14.8 | 0.00 | 0.00 | 0.00 | 37 | 1001.4 |
| 20260504204135 | 61 | 311 | 6.1 | 12.2 | 0.00 | 0.00 | 0.00 | 37 | 1001.6 |
| 20260504203634 | 61 | 196 | 2.6 | 4.3 | 0.00 | 0.00 | 0.00 | 37 | 1001.5 |
| 20260504203131 | 63 | 300 | 7.8 | 10.4 | 0.00 | 0.00 | 0.00 | 36 | 1001.3 |
| 20260504202631 | 63 | 65 | 3.5 | 4.3 | 0.00 | 0.00 | 0.00 | 36 | 1001.3 |
| 20260504202128 | 64 | 91 | 7.0 | 10.4 | 0.00 | 0.00 | 0.00 | 35 | 1001.1 |
| 20260504201625 | 64 | 289 | 4.3 | 6.1 | 0.00 | 0.00 | 0.00 | 36 | 1001.0 |
| 20260504201123 | 64 | 312 | 5.2 | 8.7 | 0.00 | 0.00 | 0.00 | 36 | 1001.0 |
| 20260504200620 | 64 | 301 | 4.3 | 6.1 | 0.00 | 0.00 | 0.00 | 38 | 1001.0 |
| 20260504200116 | 63 | 31 | 2.6 | 4.3 | 0.00 | 0.00 | 0.00 | 37 | 1000.8 |
| 20260504195612 | 62 | 106 | 5.2 | 7.8 | 0.00 | 0.00 | 0.00 | 37 | 1000.9 |
| 20260504195108 | 62 | 278 | 4.3 | 7.8 | 0.00 | 0.00 | 0.00 | 38 | 1000.7 |
| 20260504194605 | 63 | 18 | 5.2 | 7.8 | 0.00 | 0.00 | 0.00 | 38 | 1000.9 |
| 20260504194101 | 63 | 66 | 2.6 | 2.6 | 0.00 | 0.00 | 0.00 | 38 | 1000.8 |
| 20260504193558 | 62 | 150 | 3.5 | 6.1 | 0.00 | 0.00 | 0.00 | 40 | 1000.7 |
| 20260504193056 | 61 | 344 | 7.0 | 10.4 | 0.00 | 0.00 | 0.00 | 38 | 1000.7 |
| 20260504192554 | 62 | 290 | 5.2 | 12.2 | 0.00 | 0.00 | 0.00 | 39 | 1000.6 |
| 20260504192052 | 63 | 334 | 6.1 | 10.4 | 0.00 | 0.00 | 0.00 | 38 | 1000.4 |
| 20260504191550 | 63 | 292 | 5.2 | 6.1 | 0.00 | 0.00 | 0.00 | 39 | 1000.6 |
| 20260504191046 | 63 | 327 | 4.3 | 6.1 | 0.00 | 0.00 | 0.00 | 38 | 1000.3 |
| 20260504190542 | 62 | 141 | 3.5 | 4.3 | 0.00 | 0.00 | 0.00 | 41 | 1000.2 |
| 20260504190038 | 62 | 312 | 7.0 | 13.0 | 0.00 | 0.00 | 0.00 | 38 | 1000.4 |
| 20260504185536 | 62 | 39 | 4.3 | 8.7 | 0.00 | 0.00 | 0.00 | 39 | 1000.4 |
| 20260504185032 | 62 | 240 | 6.1 | 8.7 | 0.00 | 0.00 | 0.00 | 37 | 1000.2 |
| 20260504184527 | 62 | 223 | 4.3 | 6.1 | 0.00 | 0.00 | 0.00 | 38 | 1000.0 |
| 20260504184023 | 63 | 277 | 4.3 | 7.8 | 0.00 | 0.00 | 0.00 | 36 | 1000.0 |
| 20260504183520 | 65 | 322 | 4.3 | 6.1 | 0.00 | 0.00 | 0.00 | 35 | 999.9 |
| 20260504183019 | 64 | 50 | 4.3 | 6.1 | 0.00 | 0.00 | 0.00 | 38 | 999.8 |
| 20260504182515 | 64 | 296 | 3.5 | 7.8 | 0.00 | 0.00 | 0.00 | 38 | 999.9 |
| 20260504182012 | 63 | 151 | 5.2 | 7.8 | 0.00 | 0.00 | 0.00 | 36 | 999.9 |
| 20260504181509 | 63 | 291 | 3.5 | 4.3 | 0.00 | 0.00 | 0.00 | 36 | 999.6 |
| 20260504181008 | 64 | 312 | 4.3 | 6.1 | 0.00 | 0.00 | 0.00 | 37 | 999.5 |
| 20260504180506 | 62 | 193 | 1.7 | 2.6 | 0.00 | 0.00 | 0.00 | 38 | 999.4 |
| 20260504180004 | 62 | 11 | 1.7 | 1.7 | 0.00 | 0.00 | 0.00 | 37 | 999.6 |
| 20260504175501 | 63 | 267 | 3.5 | 6.1 | 0.00 | 0.00 | 0.00 | 37 | 999.4 |
| 20260504174958 | 63 | 199 | 3.5 | 4.3 | 0.00 | 0.00 | 0.00 | 37 | 999.5 |
| 20260504174456 | 64 | 97 | 3.5 | 7.8 | 0.00 | 0.00 | 0.00 | 36 | 999.4 |
| 20260504173953 | 65 | 358 | 5.2 | 8.7 | 0.00 | 0.00 | 0.00 | 36 | 999.2 |
| 20260504173449 | 64 | 303 | 1.7 | 2.6 | 0.00 | 0.00 | 0.00 | 40 | 999.0 |
| 20260504172947 | 65 | 189 | 1.7 | 2.6 | 0.00 | 0.00 | 0.00 | 39 | 999.0 |
| 20260504172443 | 65 | 23 | 2.6 | 2.6 | 0.00 | 0.00 | 0.00 | 41 | 999.2 |
| 20260504171940 | 64 | 178 | 1.7 | 2.6 | 0.00 | 0.00 | 0.00 | 44 | 999.1 |
| 20260504171437 | 63 | 298 | 4.3 | 12.2 | 0.00 | 0.00 | 0.00 | 43 | 999.0 |
| 20260504170934 | 62 | 206 | 2.6 | 2.6 | 0.00 | 0.00 | 0.00 | 43 | 999.1 |
| 20260504170430 | 63 | 356 | 9.6 | 16.5 | 0.00 | 0.00 | 0.00 | 41 | 999.2 |
| 20260504160349 | 64 | 310 | 1.7 | 2.6 | 0.00 | 0.00 | 0.00 | 41 | 998.9 |
| 20260504150814 | 62 | 162 | 0.9 | 1.7 | 0.00 | 0.00 | 0.00 | 42 | 998.5 |
| 20260504150310 | 62 | 16 | 2.6 | 4.3 | 0.00 | 0.00 | 0.00 | 40 | 998.7 |
| 20260504141240 | 60 | 20 | 2.6 | 4.3 | 0.00 | 0.00 | 0.00 | 41 | 998.6 |
| 20260504140737 | 60 | 344 | 8.7 | 12.2 | 0.00 | 0.00 | 0.00 | 39 | 998.7 |
| 20260504140232 | 60 | 51 | 3.5 | 6.1 | 0.00 | 0.00 | 0.00 | 38 | 998.6 |
| 20260504130701 | 60 | 166 | 1.7 | 1.7 | 0.00 | 0.00 | 0.00 | 48 | 997.2 |
| 20260504130157 | 60 | 149 | 0.9 | 1.7 | 0.00 | 0.00 | 0.00 | 48 | 997.0 |
| 20260504120121 | 58 | 191 | 0.9 | 1.7 | 0.00 | 0.00 | 0.00 | 47 | 996.5 |
| 20260504110549 | 58 | 191 | 4.3 | 4.3 | 0.00 | 0.00 | 0.00 | 45 | 996.1 |
| 20260504100510 | 57 | 193 | 1.7 | 1.7 | 0.00 | 0.00 | 0.00 | 47 | 996.5 |